Location: Newark
(46.7636°N, 1.8358°W)
Time: 10:57:23
(UTC+00:00)

Vanguard 1 - Visible Passes

Search period start: 20 October 2019 00:00
Search period end: 30 October 2019 00:00
Orbit: 653 x 3830 km, 34.2° (Epoch: 20 October)

Date Brightness Start Highest point End Pass type
(mag) Time Alt. Az. Time Alt. Az. Time Alt. Az.
20 Oct 12.0 18:20:42 10° SSW 18:27:23 29° SSE 18:34:50 17° ESE visible
20 Oct 12.0 20:38:17 10° WSW 20:47:31 48° S 20:47:31 48° S visible
20 Oct 13.2 22:58:02 10° W 23:00:12 18° WSW 23:00:12 18° WSW visible
21 Oct 11.9 18:40:52 10° SW 18:47:55 34° SSE 18:54:21 22° ESE visible
21 Oct 12.0 20:59:00 10° WSW 21:07:03 46° SSW 21:07:03 46° SSW visible
21 Oct 13.4 23:19:09 10° W 23:19:44 12° W 23:19:44 12° W visible
22 Oct 11.8 19:01:15 10° SW 19:08:33 38° SSE 19:13:53 27° ESE visible
22 Oct 12.2 21:19:49 10° WSW 21:26:34 40° SW 21:26:34 40° SW visible
23 Oct 11.7 19:21:46 10° SW 19:29:18 41° SSE 19:33:25 33° SE visible
23 Oct 12.5 21:40:41 10° WSW 21:46:06 33° SW 21:46:06 33° SW visible
24 Oct 11.9 17:25:08 10° SSW 17:30:18 24° SSE 17:38:00 10° E visible
24 Oct 11.8 19:42:23 10° WSW 19:50:08 43° S 19:52:58 38° SE visible
24 Oct 12.7 22:01:39 10° WSW 22:05:39 25° WSW 22:05:39 25° WSW visible
25 Oct 11.7 17:45:16 10° SSW 17:50:49 29° SSE 17:59:31 10° ESE visible
25 Oct 11.8 20:03:05 10° WSW 20:11:00 42° S 20:12:31 41° SSE visible
25 Oct 13.0 22:22:46 10° WSW 22:25:13 18° WSW 22:25:13 18° WSW visible
26 Oct 11.6 18:05:37 10° SW 18:11:26 33° SSE 18:19:25 13° ESE visible
26 Oct 11.9 20:23:52 10° WSW 20:31:56 40° S 20:32:06 40° S visible
26 Oct 13.3 22:44:04 10° WSW 22:44:48 12° WSW 22:44:48 12° WSW visible
27 Oct 11.6 18:26:06 10° SW 18:32:08 35° SSE 18:39:01 18° ESE visible
27 Oct 12.1 20:44:45 10° WSW 20:51:42 36° SSW 20:51:42 36° SSW visible
28 Oct 11.6 18:46:44 10° WSW 18:52:55 36° S 18:58:39 22° SE visible
28 Oct 12.3 21:05:44 10° WSW 21:11:21 30° SW 21:11:21 30° SW visible
29 Oct 11.7 19:07:26 10° WSW 19:13:45 36° S 19:18:19 25° SE visible
29 Oct 12.6 21:26:53 10° WSW 21:31:01 23° SW 21:31:01 23° SW visible
